919 
ASUS46 KSEW 300610
RWRWA 

WASHINGTON REGIONAL WEATHER ROUNDUP
NATIONAL WEATHER SERVICE SEATTLE WA
1100 PM PDT THU SEP 29 2016

NOTE:"FAIR" INDICATES FEW OR NO CLOUDS BELOW 12,000 FEET WITH NO 
SIGNIFICANT WEATHER AND/OR OBSTRUCTIONS TO VISIBILITY.

WAZ505-507>509-300700-
SEATTLE, TACOMA, EVERETT, AND VICINITY
  
CITY           SKY/WX    TMP DP  RH WIND       PRES   REMARKS
EVERETT        CLOUDY    54  42  64 NE5       30.07S                  
6HR MIN TEMP:  53; 6HR MAX TEMP:  60;                                

BOEING FIELD   MOCLDY    59  39  47 CALM      30.06S                  
6HR MIN TEMP:  58; 6HR MAX TEMP:  66;                                

RENTON         MOCLDY    54  46  74 CALM      30.05F                  
6HR MIN TEMP:  54; 6HR MAX TEMP:  64;                                

SEATAC AIRPORT MOCLDY    56  41  57 N5        30.06F                  
6HR MIN TEMP:  56; 6HR MAX TEMP:  65;                                

JBLM-MCCHORD   PTCLDY    50  45  84 S1        30.05F                  
6HR MIN TEMP:  49; 6HR MAX TEMP:  64;                                

PUYALLUP         N/A     48  46  93 CALM      30.06F                  
BREMERTON      PTCLDY    45  37  76 S5        30.10S                  
6HR MIN TEMP:  45; 6HR MAX TEMP:  63;                                

JBLM-FT LEWIS  MOCLDY    56  50  79 W2        30.05F                  
6HR MIN TEMP:  55; 6HR MAX TEMP:  65;                                

TACOMA NARROWS MOCLDY    52  43  71 CALM      30.06F                  
6HR MIN TEMP:  52; 6HR MAX TEMP:  62;                                

$$
 
WAZ001-503-506-510-514-515-300700-
NORTH INTERIOR
  
CITY           SKY/WX    TMP DP  RH WIND       PRES   REMARKS
BELLINGHAM     PTCLDY    47  43  86 SE3       30.05F                  
6HR MIN TEMP:  47; 6HR MAX TEMP:  60;                                

FRIDAY HARBOR  PTCLDY    47  43  86 CALM      30.06S                  
6HR MIN TEMP:  45; 6HR MAX TEMP:  59;                                

EASTSOUND      PTCLDY    50  45  81 S3        30.04S                  
PORT ANGELES   CLEAR     47  43  86 W3        30.07F                  
6HR MIN TEMP:  47; 6HR MAX TEMP:  58;                                

EDIZ HOOK      NOT AVBL                                               
PORT TOWNSEND  CLOUDY    41  39  93 CALM      30.07                   
NAS WHIDBEY    NOT AVBL                                               
ARLINGTON      CLOUDY    52  41  66 N3        30.09S                  
6HR MIN TEMP:  48; 6HR MAX TEMP:  63;                                

BURLINGTON     PTCLDY    48  45  87 CALM      30.07R                  
$$
 
WAZ020-022-039-040-504-511-512-300700-
SOUTHWEST INTERIOR
  
CITY           SKY/WX    TMP DP  RH WIND       PRES   REMARKS
SHELTON        PTCLDY    49  45  86 W3        30.05S                  
6HR MIN TEMP:  49; 6HR MAX TEMP:  68;                                

OLYMPIA        PTCLDY    48  44  86 CALM      30.06S                  
6HR MIN TEMP:  48; 6HR MAX TEMP:  68;                                

CHEHALIS       FAIR      52  48  87 W3        30.07S                  
KELSO          CLEAR     50  48  93 CALM      30.08S                  
6HR MIN TEMP:  50; 6HR MAX TEMP:  66;                                

VANCOUVER      CLEAR     57  46  66 NW3       30.06R                  
6HR MIN TEMP:  56; 6HR MAX TEMP:  69;                                

SCAPPOOSE, OR  CLEAR     55  46  71 VRB5      30.05S                  
6HR MIN TEMP:  55; 6HR MAX TEMP:  69;                                

PORTLAND, OR   PTCLDY    56  46  69 NW5       30.07R                  
6HR MIN TEMP:  56; 6HR MAX TEMP:  68;                                

$$
 
WAZ021-516-517-300700-
WASHINGTON COAST
  
CITY           SKY/WX    TMP DP  RH WIND       PRES   REMARKS
FORKS          MOCLDY    48  46  93 CALM      30.08S                  
6HR MIN TEMP:  46; 6HR MAX TEMP:  59;                                

HOQUIAM        PTCLDY    52  51  97 W5        30.08S                  
6HR MIN TEMP:  52; 6HR MAX TEMP:  61;                                

ASTORIA, OR    PTCLDY    52  49  89 CALM      30.08F                  
6HR MIN TEMP:  52; 6HR MAX TEMP:  62;                                

$$
 
WAZ019-023-024-040-518-519-300700-
CASCADE MOUNTAINS AND COLUMBIA GORGE
  
CITY           SKY/WX    TMP DP  RH WIND       PRES   REMARKS
STAMPEDE PASS  MOCLDY    41  39  93 VRB6      30.04F                  
6HR MIN TEMP:  41; 6HR MAX TEMP:  49;                                

TROUTDALE, OR  PTCLDY    55  46  71 SW5       30.06R                  
6HR MIN TEMP:  55; 6HR MAX TEMP:  69;                                

THE DALLES, OR MOCLDY    63  40  42 W8        29.97S                  
6HR MIN TEMP:  61; 6HR MAX TEMP:  74;                                

$$

WAZ026-027-041>044-520-521-300700-
EAST SLOPES
  
CITY           SKY/WX    TMP DP  RH WIND       PRES   REMARKS
OMAK           MOCLDY    59  40  49 MISG      29.91R                  
6HR MIN TEMP:  59; 6HR MAX TEMP:  77;                                

WENATCHEE      MOCLDY    65  47  52 N10       29.91R                  
6HR MIN TEMP:  65; 6HR MAX TEMP:  78;                                

ELLENSBURG     CLOUDY    58  44  60 NW17      29.95R                  
6HR MIN TEMP:  57; 6HR MAX TEMP:  73;                                

YAKIMA         CLOUDY    64  44  48 NW8       29.93R                  
6HR MIN TEMP:  64; 6HR MAX TEMP:  81;                                

$$

WAZ028-034-035-300700-
COLUMBIA BASIN
  
CITY           SKY/WX    TMP DP  RH WIND       PRES   REMARKS
EPHRATA        PTCLDY    58  44  60 S5        29.90R                  
6HR MIN TEMP:  58; 6HR MAX TEMP:  77; 6HR PCP: TRACE;                

MOSES LAKE     PTCLDY    59  44  57 S3        29.90S                  
6HR MIN TEMP:  59; 6HR MAX TEMP:  79;                                

PASCO          PTCLDY    69  43  38 S13       29.90R                  
6HR MIN TEMP:  62; 6HR MAX TEMP:  81;                                

HERMISTON, OR  PTCLDY    63  43  48 SW6       29.93R                  
6HR MIN TEMP:  63; 6HR MAX TEMP:  81;                                

$$

WAZ036>038-300700-
NORTHEAST WASHINGTON
  
CITY           SKY/WX    TMP DP  RH WIND       PRES   REMARKS
SPOKANE GEIGER MOCLDY    64  42  44 SW8       29.95F                  
6HR MIN TEMP:  64; 6HR MAX TEMP:  78;                                

SPOKANE FELTS  CLOUDY    66  46  48 NE3       29.93F                  
6HR MIN TEMP:  61; 6HR MAX TEMP:  81;                                

FAIRCHILD AFB  MOCLDY    59  42  53 W8        29.96S                  
6HR MIN TEMP:  59; 6HR MAX TEMP:  78;                                

COEURDALENE,ID CLOUDY    66  46  48 VRB3      29.95F                  
6HR MIN TEMP:  60; 6HR MAX TEMP:  76;                                

DEER PARK      MOCLDY    64  44  48 SE3       29.95S                  
6HR MIN TEMP:  56; 6HR MAX TEMP:  77;                                

$$

WAZ029>033-300700-
SOUTHEAST WASHINGTON
  
CITY           SKY/WX    TMP DP  RH WIND       PRES   REMARKS
PULLMAN        MOCLDY    62  44  51 W6        30.00R                  
6HR MIN TEMP:  61; 6HR MAX TEMP:  75; 6HR PCP: TRACE;                

LEWISTON, ID   MOCLDY    68  49  50 W5        29.91R HAZE             
6HR MIN TEMP:  65; 6HR MAX TEMP:  83; 6HR PCP:  0.02;                

WALLA WALLA    PTCLDY    66  48  52 S12       29.93R                  
6HR MIN TEMP:  64; 6HR MAX TEMP:  80; 6HR PCP: TRACE;                

PENDLETON, OR  PTCLDY    62  39  42 VRB3      29.96R                  
6HR MIN TEMP:  61; 6HR MAX TEMP:  77;                                

$$